COSMOS 2441

Satellite information

Favourite Embed

Satellite Type and Status

PAYLOADIN ORBIT

Key statistics

Satellite COSMOS 2441 at a glance.

Uptime

6190

Days in orbit

Revolutions

≈ 14.5

Per day

Orbit

SSO

Sun Synchronous Orbit

Inclination

98.3

Latest

Satellite identification and parameters

Extended collection of information and parameters for COSMOS 2441.

Object identification

Identified? True

Debris? False

Object name: COSMOS 2441

International designator: 2008-037A

Object number (NORAD): 33272

Object ID (CCSDS): 33272

Country: COMMONWEALTH OF INDEPENDENT STATES (CIS)

Current information (Y/N): Y

RCS size: LARGE

Orbital parameters

Period: 99.107 minutes

Inclination: 98.2852 deg

SMA: 7094.075 km

Apoapsis: 726.911 km

Periapsis: 704.97 km

RAAN: 132.7843 deg

Eccentricy: 0.0015464

Argument of periapsis: 326.032 deg

Mean anomaly: 33.9885 deg

Mean motion: 14.52978067 rev/day

Mean motion (dot): 0.00000096 rev/day2

B* drag term: 0.00003428 1/REarth

Two-line elements (TLE)

Creation date: July 6, 2025, 10:56 p.m.

Reference frame: TEME

Reference center: EARTH

Epoch: July 6, 2025, 8:25 p.m. UTC

TLE line 0: 0 COSMOS 2441

TLE line 1: 1 33272U 08037A 25187.85135766 .00000096 00000-0 34280-4 0 9995

TLE line 2: 2 33272 98.2852 132.7843 0015464 326.0320 33.9885 14.52978067897916

Live tracking on map

Real-time ground track for satellite COSMOS 2441.

In-orbit conjunctions

A list of the most updated potential collisions computed for object COSMOS 2441.

Target Orbit TCA Probability of collision Miss distance Type
FENGYUN 1C DEB SSO 2025-06-21 21:47:50 0.0002267875 545.0 (m) DEBRIS
COSMOS 1275 DEB LEO 2025-04-27 04:14:46 0.0002284663 940.0 (m) DEBRIS
NOAA 16 DEB SSO 2025-04-04 15:38:48 0.0005013912 265.0 (m) DEBRIS
CZ-6A DEB SSO 2024-12-10 17:54:12 0.0003245799 392.0 (m) DEBRIS
COSMOS 2251 DEB LEO 2024-09-28 13:02:01 0.0004444293 648.0 (m) DEBRIS

Associated space launch

Electro-optical reconnaissance satellite

COSMOS 2441 was lifted into orbit during the mission ‘Soyuz 2.1b | Persona 1’, on board a Soyuz 2.1b space rocket.

The launch took place on July 26, 2008, 6:31 p.m. from 43/4 (43R).

For more information about the launch, click the button.

Launch to space Soyuz 2.1b | Persona 1
Soyuz 2.1b | Persona 1

Agency: N/A

Status: Launch Successful

Launch date: July 26, 2008, 6:31 p.m. UTC

Rocket: Soyuz 2.1b

Launch pad: 43/4 (43R)

Location: Plesetsk Cosmodrome, Russian Federation

...

Latest news about this satellite

There are no fresh news available about this satellite. Check back as we update our databases every day.


Newsletter sign-up

Weekly statistics, charts and insights to help you stay on top of the space industry.